Погода в Смирном

Россия / Тюменская область     55°49′01″N   68°59′06″E
темп.,
°C
ветер,
м/с
пор.,
м/с
влажн.,
%
обл.,
%
осадки,
мм/ч
давл.,
гПа
погр.,
м
8 мая, сб
сб823:00+12з23435 0.0 102015
02:00+11зюз22445 0.0 102010
05:00+10юз22485 0.0 102110
08:00+16ююз23351 0.0 1020322
11:00+20ююз332610 0.0 10191606
14:00+22ю222318 0.0 10182120
17:00+22юв4324100 0.0 10172091
20:00+18ююв2236100 0.0 101613
9 мая, вс
вс923:00+15вюв2240100 0.0 101618
02:00+13всв3445100 0.0 101544
05:00+12всв4852100 0.0 1016126
08:00+17в51042100 0.0 1016499
11:00+20в7936100 0.0 10161439
14:00+21в81135100 0.0 10162351
17:00+20всв7937100 0.0 10162116
20:00+17всв71341100 0.0 1018667
10 мая, пн
пн1023:00+14всв7134498 0.0 1019563
02:00+11всв61247100 0.0 1020470
05:00+10всв61249100 0.0 1021459
08:00+12всв81144100 0.0 1022823
11:00+16в8932100 0.0 10231415
14:00+17всв7828100 0.0 10231734
17:00+17всв682952 0.0 10231710
20:00+13в3344100 0.0 102439
11 мая, вт
вт1123:00+10всв2247100 0.0 102511
02:00+9ссв22539 0.0 102611
05:00+8ссз22576 0.0 102613
08:00+14с22415 0.0 1026394
11:00+18ссв2230100 0.0 10261507
14:00+20ссз2226100 0.0 10251878
17:00+20сз3327100 0.0 10241885
20:00+16зсз3337100 0.0 102441
12 мая, ср
ср1223:00+14зсз3444100 0.0 102449
02:00+13зсз374530 0.0 1023182
05:00+10ссз6988100 0.0 1023555
08:00+12ссз89615 0.0 1024982
11:00+15с8104041 0.0 10241554
14:00+17с8102340 0.0 10242147
17:00+16с81028100 0.0 10242344
20:00+13с484217 0.0 1025179